Jackson, TN

12:07 PM CST on November 20, 2019 (GMT -0600)
McKellar-Sipes Regional

Weather History for KMKL - September, 2019

Change the Weather History Date:

Wednesday, September 4, 2019

  Actual Average Record
Temperature  
Mean Temperature 80 °F 76 °F  
Max Temperature 95 °F 88 °F 104 °F (1954)
Min Temperature 64 °F 63 °F 48 °F (1974)
Degree Days  
Heating Degree Days 0 0  
Month to date heating degree days 0 0  
Since 1 July heating degree days 0 0  
Cooling Degree Days 14 11  
Month to date cooling degree days 54 44  
Year to date cooling degree days 1515 1467  
Growing Degree Days 30 (Base 50)    
Moisture  
Dew Point 68 °F    
Average Humidity 86    
Maximum Humidity 100    
Minimum Humidity 49    
Precipitation  
Precipitation 0.00 in 0.09 in 2.92 in (1962)
Month to date precipitation 0.00 0.36  
Year to date precipitation 46.71 36.23  
Sea Level Pressure  
Sea Level Pressure 30.02 in    
Wind  
Wind Speed 1 mph ()    
Max Wind Speed 9 mph    
Max Gust Speed 12 mph    
Visibility 5.1 miles    
Events Fog    
T = Trace of Precipitation, MM = Missing Value Source: Averaged Metar Reports

Daily Weather History Graph

Daily Weather History Graph

Search for Another Location

Airport or City:

Astronomy

Sep. 04, 2019 Rise Set
Actual Time 6:29 AM CDT 7:18 PM CDT
Civil Twilight 6:03 AM CDT 7:44 PM CDT
Nautical Twilight 5:33 AM CDT 8:15 PM CDT
Astronomical Twilight 5:01 AM CDT 8:46 PM CDT
Moon 12:18 PM CDT (9/4) 11:06 PM CDT (9/4)
Length of Visible Light 13h 40m
Length of Day
12h 49m
Waxing Crescent, 35% of the Moon is Illuminated
Sep 4
Waxing Crescent
Sep 5
First Quarter
Sep 13
Full
Sep 21
Last Quarter
Sep 28
New

Hourly Weather History & Observations

Time (CDT) Temp. Heat Index Dew Point Humidity Pressure Visibility Wind Dir Wind Speed Gust Speed Precip Events Conditions
12:53 AM 69.1 °F - 69.1 °F 100% 30.00 in 8.0 mi SSW 3.5 mph - N/A   Clear
1:46 AM 68.0 °F - 66.9 °F 96% 30.01 in 2.0 mi Calm Calm - N/A   Clear
1:53 AM 68.0 °F - 66.9 °F 96% 30.00 in 6.0 mi Calm Calm - N/A   Clear
1:57 AM 68.0 °F - 66.9 °F 96% 30.01 in 0.8 mi Calm Calm - N/A   Clear
2:08 AM 66.9 °F - 66.0 °F 97% 30.01 in 0.2 mi Calm Calm - N/A Fog Fog
2:16 AM 66.9 °F - 66.0 °F 97% 30.01 in 1.0 mi Calm Calm - N/A   Clear
2:19 AM 66.9 °F - 66.0 °F 97% 30.01 in 3.0 mi Calm Calm - N/A   Clear
2:34 AM 66.0 °F - 64.9 °F 96% 30.02 in 1.8 mi Calm Calm - N/A   Clear
2:50 AM 66.2 °F - 64.4 °F 94% 30.01 in 0.5 mi Calm Calm - N/A Fog Fog
2:53 AM 66.0 °F - 64.9 °F 96% 30.00 in 0.5 mi Calm Calm - N/A Fog Fog
2:58 AM 66.0 °F - 66.0 °F 100% 30.01 in 2.5 mi Calm Calm - N/A   Clear
3:05 AM 66.0 °F - 66.0 °F 100% 30.01 in 3.0 mi Calm Calm - N/A   Clear
3:12 AM 66.9 °F - 66.9 °F 100% 30.01 in 1.5 mi Calm Calm - N/A   Clear
3:20 AM 66.0 °F - 66.0 °F 100% 30.02 in 0.5 mi Calm Calm - N/A Fog Fog
3:46 AM 66.0 °F - 64.9 °F 96% 30.01 in 0.2 mi Calm Calm - N/A Fog Fog
3:53 AM 66.0 °F - 64.9 °F 96% 30.00 in 0.8 mi Calm Calm - N/A   Clear
4:06 AM 66.0 °F - 66.0 °F 100% 30.02 in 2.0 mi Calm Calm - N/A   Clear
4:14 AM 66.0 °F - 64.9 °F 96% 30.02 in 4.0 mi Calm Calm - N/A   Clear
4:28 AM 64.9 °F - 64.9 °F 100% 30.03 in 1.8 mi Calm Calm - N/A   Clear
4:37 AM 64.9 °F - 64.0 °F 97% 30.03 in 3.0 mi Calm Calm - N/A   Clear
4:51 AM 66.2 °F - 64.4 °F 94% 30.03 in 1.5 mi Calm Calm - N/A   Clear
4:53 AM 64.9 °F - 64.9 °F 100% 30.02 in 1.2 mi Calm Calm - N/A   Clear
5:29 AM 64.0 °F - 63.0 °F 96% 30.05 in 3.0 mi Calm Calm - N/A   Clear
5:53 AM 64.9 °F - 64.0 °F 97% 30.04 in 2.0 mi Calm Calm - N/A   Clear
6:05 AM 64.9 °F - 64.0 °F 97% 30.06 in 4.0 mi Calm Calm - N/A   Clear
6:53 AM 64.9 °F - 64.0 °F 97% 30.06 in 5.0 mi Calm Calm - N/A   Clear
7:53 AM 72.0 °F - 69.1 °F 91% 30.07 in 10.0 mi Calm Calm - N/A   Clear
9:53 AM 84.9 °F 89.4 °F 70.0 °F 61% 30.07 in 10.0 mi NNW 4.6 mph - N/A   Clear
10:53 AM 88.0 °F 94.7 °F 72.0 °F 59% 30.08 in 10.0 mi Variable 3.5 mph - N/A   Clear
11:53 AM 91.0 °F 99.3 °F 73.0 °F 55% 30.07 in 10.0 mi North 8.1 mph - N/A   Clear
12:53 PM 91.0 °F 100.4 °F 73.9 °F 57% 30.06 in 10.0 mi NW 9.2 mph - N/A   Clear
1:53 PM 91.9 °F 100.7 °F 73.0 °F 54% 30.04 in 10.0 mi Calm Calm - N/A   Clear
2:53 PM 93.0 °F 100.1 °F 71.1 °F 49% 30.03 in 10.0 mi WNW 5.8 mph - N/A   Clear
3:53 PM 93.9 °F 102.1 °F 72.0 °F 49% 30.01 in 10.0 mi WNW 4.6 mph - N/A   Clear
4:53 PM 93.9 °F 103.4 °F 73.0 °F 51% 30.00 in 10.0 mi NW 6.9 mph - N/A   Clear
5:53 PM 93.0 °F 101.9 °F 73.0 °F 52% 30.00 in 10.0 mi NW 3.5 mph - N/A   Clear
6:53 PM 89.1 °F 98.0 °F 73.9 °F 61% 30.00 in 10.0 mi WNW 3.5 mph - N/A   Clear
7:53 PM 82.0 °F 89.4 °F 75.9 °F 82% 30.01 in 10.0 mi West 3.5 mph - N/A   Partly Cloudy
8:53 PM 78.1 °F - 75.0 °F 90% 30.01 in 10.0 mi Calm Calm - N/A   Clear
9:53 PM 78.1 °F - 75.0 °F 90% 30.02 in 10.0 mi Calm Calm - N/A   Clear
10:53 PM 80.1 °F 85.1 °F 75.0 °F 85% 30.03 in 10.0 mi North 4.6 mph - N/A   Clear